When you browse on this site, cookies collect data to enhance your experience and personalize the content and advertising you see.
Visit our Privacy Policy to learn more. By continuing to use the site, you agree to this use of cookies and data.
  • In Lithuania
  • List of Countries
  • For 7 days
  • Water Temperature
  • Weather Map
  • Weather Widgets
  • user-avatar
    Login

    Hourly Weather Cierzpiety

    Today, 19 August, Monday

    Time Temperature Precipitation Wind Pressure Humidity
    00:00 +20°C° 0.1 mm 3 mps 744 mmHg 73%
    01:00 +20°C° 0.1 mm 4 mps 744 mmHg 75%
    02:00 +20°C° 0 mm 3 mps 745 mmHg 79%
    03:00 +19°C° 0 mm 3 mps 745 mmHg 83%
    04:00 +19°C° 0 mm 3 mps 745 mmHg 87%
    05:00 +20°C° 0.1 mm 3 mps 745 mmHg 85%
    06:00 +21°C° 0.1 mm 2 mps 746 mmHg 83%
    07:00 +23°C° 0.1 mm 2 mps 746 mmHg 81%
    08:00 +24°C° 0 mm 3 mps 747 mmHg 75%
    09:00 +26°C° 0 mm 3 mps 747 mmHg 68%
    10:00 +27°C° 0 mm 3 mps 748 mmHg 61%
    11:00 +28°C° 0.1 mm 3 mps 748 mmHg 59%
    12:00 +28°C° 0.1 mm 3 mps 748 mmHg 56%
    13:00 +29°C° 0.1 mm 3 mps 748 mmHg 54%
    14:00 +27°C° 0.7 mm 3 mps 748 mmHg 62%
    15:00 +26°C° 0.7 mm 3 mps 748 mmHg 69%
    16:00 +24°C° 0.7 mm 3 mps 749 mmHg 77%
    17:00 +23°C° 0.3 mm 2 mps 749 mmHg 81%
    18:00 +21°C° 0.3 mm 2 mps 749 mmHg 85%
    19:00 +20°C° 0.3 mm 2 mps 749 mmHg 88%
    20:00 +19°C° 0 mm 2 mps 750 mmHg 89%
    21:00 +20°C° 0 mm 1 mps 750 mmHg 90%
    22:00 +19°C° 0 mm 1 mps 750 mmHg 91%
    23:00 +18°C° 0 mm 1 mps 751 mmHg 91%

    Tomorrow, 20 August, Tuesday

    Time Temperature Precipitation Wind Pressure Humidity
    00:00 +18°C° 0 mm 1 mps 751 mmHg 92%
    01:00 +16°C° 0 mm 1 mps 751 mmHg 93%
    02:00 +16°C° 0 mm 1 mps 751 mmHg 93%
    03:00 +16°C° 0 mm 1 mps 752 mmHg 93%
    04:00 +15°C° 0 mm 1 mps 752 mmHg 93%
    05:00 +16°C° 0 mm 1 mps 752 mmHg 90%
    06:00 +18°C° 0 mm 1 mps 753 mmHg 86%
    07:00 +19°C° 0 mm 1 mps 753 mmHg 83%
    08:00 +21°C° 0 mm 1 mps 753 mmHg 72%
    09:00 +23°C° 0 mm 1 mps 753 mmHg 62%
    10:00 +25°C° 0 mm 2 mps 754 mmHg 51%
    11:00 +25°C° 0 mm 2 mps 754 mmHg 48%
    12:00 +26°C° 0 mm 2 mps 754 mmHg 44%
    13:00 +27°C° 0 mm 1 mps 754 mmHg 41%
    14:00 +26°C° 0 mm 1 mps 754 mmHg 43%
    15:00 +26°C° 0 mm 1 mps 753 mmHg 45%
    16:00 +26°C° 0 mm 1 mps 753 mmHg 47%
    17:00 +24°C° 0 mm 1 mps 753 mmHg 53%
    18:00 +22°C° 0 mm 1 mps 754 mmHg 59%
    19:00 +20°C° 0 mm 1 mps 754 mmHg 65%
    20:00 +20°C° 0 mm 1 mps 754 mmHg 68%
    21:00 +18°C° 0 mm 2 mps 754 mmHg 70%
    22:00 +18°C° 0 mm 2 mps 754 mmHg 73%
    23:00 +18°C° 0 mm 2 mps 754 mmHg 73%

    Day after tomorrow, 21 August, Wednesday

    Time Temperature Precipitation Wind Pressure Humidity
    00:00 +18°C° 0 mm 2 mps 754 mmHg 73%
    01:00 +18°C° 0 mm 2 mps 754 mmHg 73%
    02:00 +18°C° 0 mm 2 mps 754 mmHg 73%
    03:00 +18°C° 0 mm 2 mps 753 mmHg 73%
    04:00 +19°C° 0 mm 1 mps 753 mmHg 73%
    05:00 +17°C° 0.1 mm 2 mps 753 mmHg 77%
    06:00 +17°C° 0.1 mm 2 mps 754 mmHg 80%
    07:00 +17°C° 0.1 mm 3 mps 754 mmHg 84%
    08:00 +17°C° 1.2 mm 3 mps 754 mmHg 88%
    09:00 +15°C° 1.2 mm 4 mps 754 mmHg 91%
    10:00 +15°C° 1.2 mm 5 mps 754 mmHg 95%
    11:00 +15°C° 1.2 mm 5 mps 754 mmHg 95%
    12:00 +14°C° 1.2 mm 5 mps 754 mmHg 95%
    13:00 +14°C° 1.2 mm 4 mps 754 mmHg 94%
    14:00 +14°C° 0.1 mm 4 mps 754 mmHg 94%
    15:00 +14°C° 0.1 mm 3 mps 755 mmHg 94%
    16:00 +14°C° 0.1 mm 3 mps 755 mmHg 93%
    17:00 +14°C° 0 mm 3 mps 755 mmHg 94%
    18:00 +15°C° 0 mm 2 mps 755 mmHg 94%
    19:00 +14°C° 0 mm 2 mps 755 mmHg 95%
    20:00 +14°C° 0 mm 2 mps 755 mmHg 95%
    21:00 +14°C° 0 mm 2 mps 756 mmHg 95%
    22:00 +14°C° 0 mm 2 mps 756 mmHg 94%
    23:00 +13°C° 0 mm 2 mps 756 mmHg 95%

    22 August, Thursday

    Time Temperature Precipitation Wind Pressure Humidity
    00:00 +13°C° 0 mm 2 mps 756 mmHg 95%
    01:00 +13°C° 0 mm 2 mps 756 mmHg 95%
    02:00 +13°C° 0 mm 2 mps 756 mmHg 96%
    03:00 +13°C° 0 mm 2 mps 756 mmHg 96%
    04:00 +13°C° 0 mm 2 mps 756 mmHg 96%
    05:00 +14°C° 0 mm 2 mps 756 mmHg 94%
    06:00 +15°C° 0 mm 2 mps 756 mmHg 92%
    07:00 +16°C° 0 mm 2 mps 756 mmHg 90%
    08:00 +17°C° 0 mm 2 mps 756 mmHg 82%
    09:00 +19°C° 0 mm 2 mps 756 mmHg 75%
    10:00 +20°C° 0 mm 2 mps 756 mmHg 67%
    11:00 +21°C° 0 mm 2 mps 756 mmHg 63%
    12:00 +23°C° 0 mm 2 mps 756 mmHg 58%
    13:00 +24°C° 0 mm 2 mps 756 mmHg 54%
    14:00 +24°C° 0 mm 2 mps 756 mmHg 54%
    15:00 +24°C° 0 mm 2 mps 755 mmHg 54%
    16:00 +22°C° 0 mm 3 mps 755 mmHg 54%
    17:00 +21°C° 0 mm 2 mps 755 mmHg 60%
    18:00 +19°C° 0 mm 2 mps 755 mmHg 67%
    19:00 +17°C° 0 mm 2 mps 756 mmHg 74%
    20:00 +16°C° 0 mm 2 mps 756 mmHg 77%
    21:00 +15°C° 0 mm 2 mps 756 mmHg 81%
    22:00 +14°C° 0 mm 2 mps 756 mmHg 84%
    23:00 +14°C° 0 mm 2 mps 756 mmHg 85%

    23 August, Friday

    Time Temperature Precipitation Wind Pressure Humidity
    00:00 +13°C° 0 mm 1 mps 756 mmHg 85%
    01:00 +13°C° 0 mm 1 mps 757 mmHg 86%
    02:00 +13°C° 0 mm 1 mps 757 mmHg 86%
    03:00 +13°C° 0 mm 1 mps 757 mmHg 86%
    04:00 +12°C° 0 mm 1 mps 757 mmHg 87%
    05:00 +14°C° 0 mm 1 mps 757 mmHg 81%
    06:00 +15°C° 0 mm 1 mps 757 mmHg 76%
    07:00 +18°C° 0 mm 1 mps 758 mmHg 70%
    08:00 +18°C° 0 mm 2 mps 758 mmHg 63%
    09:00 +20°C° 0 mm 2 mps 758 mmHg 56%
    10:00 +21°C° 0 mm 2 mps 758 mmHg 50%
    11:00 +23°C° 0 mm 2 mps 758 mmHg 49%
    12:00 +24°C° 0 mm 2 mps 758 mmHg 48%
    13:00 +24°C° 0 mm 2 mps 758 mmHg 47%
    14:00 +24°C° 0 mm 2 mps 758 mmHg 48%
    15:00 +24°C° 0 mm 2 mps 758 mmHg 49%
    16:00 +24°C° 0 mm 2 mps 757 mmHg 51%
    17:00 +21°C° 0 mm 2 mps 757 mmHg 58%
    18:00 +19°C° 0 mm 2 mps 757 mmHg 65%
    19:00 +17°C° 0 mm 2 mps 757 mmHg 72%
    20:00 +16°C° 0 mm 2 mps 758 mmHg 74%
    21:00 +15°C° 0 mm 2 mps 758 mmHg 76%
    22:00 +14°C° 0 mm 2 mps 758 mmHg 78%
    23:00 +14°C° 0 mm 2 mps 758 mmHg 78%

    24 August, Saturday

    Time Temperature Precipitation Wind Pressure Humidity
    00:00 +13°C° 0 mm 2 mps 758 mmHg 79%
    01:00 +13°C° 0 mm 2 mps 758 mmHg 80%
    02:00 +13°C° 0 mm 2 mps 758 mmHg 82%
    03:00 +12°C° 0 mm 2 mps 758 mmHg 84%
    04:00 +12°C° 0 mm 2 mps 758 mmHg 86%
    05:00 +13°C° 0 mm 2 mps 758 mmHg 82%
    06:00 +15°C° 0 mm 2 mps 758 mmHg 78%
    07:00 +16°C° 0 mm 3 mps 758 mmHg 74%
    08:00 +18°C° 0 mm 3 mps 758 mmHg 67%
    09:00 +20°C° 0 mm 3 mps 758 mmHg 61%
    10:00 +22°C° 0 mm 4 mps 758 mmHg 55%
    11:00 +23°C° 0 mm 4 mps 757 mmHg 53%
    12:00 +25°C° 0 mm 4 mps 757 mmHg 51%
    13:00 +26°C° 0 mm 4 mps 757 mmHg 49%
    14:00 +25°C° 0 mm 4 mps 756 mmHg 50%
    15:00 +25°C° 0 mm 4 mps 756 mmHg 51%
    16:00 +25°C° 0 mm 4 mps 755 mmHg 52%
    17:00 +22°C° 0 mm 4 mps 755 mmHg 59%
    18:00 +20°C° 0 mm 3 mps 755 mmHg 66%
    19:00 +18°C° 0 mm 3 mps 755 mmHg 73%
    20:00 +18°C° 0 mm 3 mps 755 mmHg 75%
    21:00 +17°C° 0 mm 3 mps 755 mmHg 76%
    22:00 +17°C° 0 mm 4 mps 755 mmHg 77%
    23:00 +15°C° 0 mm 4 mps 754 mmHg 78%
    Show more